Location: Unspecified
(37.2150°N, 0.0000°E)
Time: 11:39:36
(UTC+00:00)

N. Korean satellite - Visible Passes

Search period start: 15 October 2019 00:00
Search period end: 25 October 2019 00:00
Orbit: 455 x 508 km, 97.2° (Epoch: 14 October)

Date Brightness Start Highest point End Pass type
(mag) Time Alt. Az. Time Alt. Az. Time Alt. Az.
15 Oct 8.7 05:24:38 10° NNE 05:27:53 32° E 05:31:10 10° SSE visible
16 Oct 10.0 05:00:17 10° NE 05:02:30 15° E 05:04:43 10° SE visible
17 Oct 10.4 18:16:16 10° WSW 18:17:25 11° W 18:18:33 10° WNW visible
18 Oct 7.4 05:41:53 10° NNE 05:45:26 58° E 05:49:03 10° S visible
18 Oct 9.3 17:49:08 10° SSW 17:51:58 24° W 17:54:49 10° NW visible
19 Oct 9.2 05:17:00 10° NE 05:20:06 26° E 05:23:12 10° SSE visible
20 Oct 10.3 04:53:01 10° ENE 04:54:40 13° E 04:56:19 10° ESE visible
21 Oct 10.1 18:07:35 10° SW 18:09:31 14° W 18:11:29 10° WNW visible
22 Oct 7.9 05:34:07 10° NNE 05:37:38 45° E 05:41:10 10° S visible
22 Oct 8.7 17:41:02 10° SSW 17:44:05 31° W 17:47:12 10° NNW visible
23 Oct 9.6 05:09:24 10° NE 05:12:15 21° E 05:15:07 10° SSE visible
24 Oct 10.6 04:46:34 10° E 04:46:47 10° E 04:47:00 10° E visible
